Stündliche Wetter Czyszkowek

Heute, 23 Oktober, Freitag

Zeit Temperatur Niederschläge Wind Luftdruck Luftfeuchtigkeit
00:00 +12°C° 0 mm 3 m/S 750 mmHg 81%
01:00 +12°C° 0 mm 3 m/S 750 mmHg 82%
02:00 +12°C° 0 mm 3 m/S 750 mmHg 82%
03:00 +11°C° 0 mm 3 m/S 749 mmHg 83%
04:00 +11°C° 0 mm 3 m/S 749 mmHg 83%
05:00 +11°C° 0 mm 3 m/S 749 mmHg 83%
06:00 +11°C° 0 mm 4 m/S 749 mmHg 82%
07:00 +11°C° 0 mm 4 m/S 749 mmHg 82%
08:00 +12°C° 0 mm 4 m/S 748 mmHg 78%
09:00 +14°C° 0 mm 4 m/S 748 mmHg 75%
10:00 +15°C° 0 mm 4 m/S 748 mmHg 71%
11:00 +17°C° 0 mm 4 m/S 748 mmHg 70%
12:00 +17°C° 0 mm 4 m/S 748 mmHg 68%
13:00 +18°C° 0 mm 3 m/S 748 mmHg 67%
14:00 +17°C° 0 mm 3 m/S 748 mmHg 70%
15:00 +16°C° 0 mm 2 m/S 747 mmHg 74%
16:00 +16°C° 0 mm 2 m/S 747 mmHg 77%
17:00 +15°C° 0 mm 2 m/S 747 mmHg 78%
18:00 +15°C° 0 mm 2 m/S 747 mmHg 80%
19:00 +14°C° 0 mm 2 m/S 747 mmHg 81%
20:00 +14°C° 0.1 mm 1 m/S 747 mmHg 83%
21:00 +14°C° 0.1 mm 1 m/S 747 mmHg 84%
22:00 +14°C° 0.1 mm 1 m/S 748 mmHg 86%
23:00 +14°C° 0.2 mm 1 m/S 747 mmHg 86%

Morgen, 24 Oktober, Samstag

Zeit Temperatur Niederschläge Wind Luftdruck Luftfeuchtigkeit
00:00 +14°C° 0.2 mm 1 m/S 747 mmHg 86%
01:00 +14°C° 0.2 mm 1 m/S 747 mmHg 86%
02:00 +14°C° 0.1 mm 2 m/S 747 mmHg 85%
03:00 +14°C° 0.1 mm 2 m/S 747 mmHg 85%
04:00 +13°C° 0.1 mm 3 m/S 746 mmHg 85%
05:00 +12°C° 0.6 mm 3 m/S 746 mmHg 87%
06:00 +12°C° 0.6 mm 3 m/S 746 mmHg 89%
07:00 +12°C° 0.6 mm 3 m/S 746 mmHg 92%
08:00 +12°C° 2.1 mm 3 m/S 747 mmHg 93%
09:00 +12°C° 2.1 mm 3 m/S 747 mmHg 95%
10:00 +12°C° 2.1 mm 3 m/S 747 mmHg 96%
11:00 +13°C° 0.5 mm 3 m/S 747 mmHg 93%
12:00 +13°C° 0.5 mm 4 m/S 748 mmHg 89%
13:00 +14°C° 0.5 mm 4 m/S 748 mmHg 86%
14:00 +13°C° 0 mm 3 m/S 748 mmHg 87%
15:00 +13°C° 0 mm 3 m/S 748 mmHg 87%
16:00 +14°C° 0 mm 2 m/S 749 mmHg 88%
17:00 +12°C° 0 mm 3 m/S 749 mmHg 89%
18:00 +12°C° 0 mm 3 m/S 750 mmHg 90%
19:00 +11°C° 0 mm 3 m/S 750 mmHg 91%
20:00 +11°C° 0 mm 3 m/S 751 mmHg 92%
21:00 +10°C° 0 mm 3 m/S 751 mmHg 93%
22:00 +10°C° 0 mm 2 m/S 752 mmHg 94%
23:00 +9°C° 0 mm 2 m/S 752 mmHg 94%

übermorgen, 25 Oktober, Sonntag

Zeit Temperatur Niederschläge Wind Luftdruck Luftfeuchtigkeit
00:00 +9°C° 0 mm 2 m/S 752 mmHg 94%
01:00 +9°C° 0 mm 2 m/S 752 mmHg 94%
02:00 +8°C° 0 mm 2 m/S 752 mmHg 94%
03:00 +8°C° 0 mm 2 m/S 752 mmHg 93%
04:00 +8°C° 0 mm 2 m/S 752 mmHg 93%
05:00 +8°C° 0 mm 2 m/S 752 mmHg 92%
06:00 +8°C° 0 mm 2 m/S 752 mmHg 92%
07:00 +9°C° 0 mm 2 m/S 752 mmHg 91%
08:00 +10°C° 0 mm 2 m/S 752 mmHg 87%
09:00 +12°C° 0 mm 2 m/S 753 mmHg 83%
10:00 +13°C° 0 mm 2 m/S 753 mmHg 79%
11:00 +14°C° 0 mm 2 m/S 752 mmHg 74%
12:00 +15°C° 0 mm 2 m/S 752 mmHg 70%
13:00 +16°C° 0 mm 2 m/S 752 mmHg 66%
14:00 +15°C° 0 mm 2 m/S 752 mmHg 69%
15:00 +14°C° 0 mm 2 m/S 751 mmHg 72%
16:00 +13°C° 0 mm 2 m/S 751 mmHg 76%
17:00 +12°C° 0 mm 3 m/S 751 mmHg 78%
18:00 +11°C° 0 mm 3 m/S 751 mmHg 80%
19:00 +10°C° 0 mm 3 m/S 752 mmHg 83%
20:00 +10°C° 0 mm 3 m/S 751 mmHg 84%
21:00 +9°C° 0 mm 3 m/S 751 mmHg 86%
22:00 +9°C° 0 mm 3 m/S 751 mmHg 88%
23:00 +9°C° 0 mm 3 m/S 751 mmHg 89%

, 26 Oktober, Montag

Zeit Temperatur Niederschläge Wind Luftdruck Luftfeuchtigkeit
00:00 +9°C° 0 mm 3 m/S 751 mmHg 90%
01:00 +8°C° 0 mm 3 m/S 750 mmHg 92%
02:00 +7°C° 0 mm 4 m/S 750 mmHg 92%
03:00 +7°C° 0 mm 4 m/S 750 mmHg 92%
04:00 +7°C° 0 mm 4 m/S 750 mmHg 93%
05:00 +7°C° 0 mm 4 m/S 749 mmHg 93%
06:00 +7°C° 0 mm 5 m/S 749 mmHg 93%
07:00 +7°C° 0 mm 5 m/S 749 mmHg 93%
08:00 +9°C° 0 mm 5 m/S 749 mmHg 87%
09:00 +10°C° 0 mm 6 m/S 748 mmHg 82%
10:00 +11°C° 0 mm 6 m/S 748 mmHg 76%
11:00 +13°C° 0 mm 6 m/S 748 mmHg 74%
12:00 +13°C° 0 mm 6 m/S 747 mmHg 73%
13:00 +14°C° 0 mm 6 m/S 747 mmHg 71%
14:00 +13°C° 0 mm 6 m/S 747 mmHg 75%
15:00 +13°C° 0 mm 6 m/S 746 mmHg 78%
16:00 +12°C° 0 mm 5 m/S 746 mmHg 81%
17:00 +12°C° 0 mm 5 m/S 746 mmHg 83%
18:00 +12°C° 0 mm 5 m/S 746 mmHg 84%
19:00 +12°C° 0 mm 5 m/S 746 mmHg 85%
20:00 +10°C° 0 mm 5 m/S 746 mmHg 87%
21:00 +10°C° 0 mm 5 m/S 746 mmHg 88%
22:00 +10°C° 0 mm 5 m/S 746 mmHg 89%
23:00 +10°C° 0 mm 5 m/S 746 mmHg 90%

26 Oktober, Montag

Zeit Temperatur Niederschläge Wind Luftdruck Luftfeuchtigkeit
00:00 +9°C° 0 mm 3 m/S 751 mmHg 90%
01:00 +8°C° 0 mm 3 m/S 750 mmHg 92%
02:00 +7°C° 0 mm 4 m/S 750 mmHg 92%
03:00 +7°C° 0 mm 4 m/S 750 mmHg 92%
04:00 +7°C° 0 mm 4 m/S 750 mmHg 93%
05:00 +7°C° 0 mm 4 m/S 749 mmHg 93%
06:00 +7°C° 0 mm 5 m/S 749 mmHg 93%
07:00 +7°C° 0 mm 5 m/S 749 mmHg 93%
08:00 +9°C° 0 mm 5 m/S 749 mmHg 87%
09:00 +10°C° 0 mm 6 m/S 748 mmHg 82%
10:00 +11°C° 0 mm 6 m/S 748 mmHg 76%
11:00 +13°C° 0 mm 6 m/S 748 mmHg 74%
12:00 +13°C° 0 mm 6 m/S 747 mmHg 73%
13:00 +14°C° 0 mm 6 m/S 747 mmHg 71%
14:00 +13°C° 0 mm 6 m/S 747 mmHg 75%
15:00 +13°C° 0 mm 6 m/S 746 mmHg 78%
16:00 +12°C° 0 mm 5 m/S 746 mmHg 81%
17:00 +12°C° 0 mm 5 m/S 746 mmHg 83%
18:00 +12°C° 0 mm 5 m/S 746 mmHg 84%
19:00 +12°C° 0 mm 5 m/S 746 mmHg 85%
20:00 +10°C° 0 mm 5 m/S 746 mmHg 87%
21:00 +10°C° 0 mm 5 m/S 746 mmHg 88%
22:00 +10°C° 0 mm 5 m/S 746 mmHg 89%
23:00 +10°C° 0 mm 5 m/S 746 mmHg 90%

27 Oktober, Dienstag

Zeit Temperatur Niederschläge Wind Luftdruck Luftfeuchtigkeit
00:00 +10°C° 0 mm 4 m/S 746 mmHg 91%
01:00 +10°C° 0 mm 4 m/S 746 mmHg 92%
02:00 +10°C° 0 mm 4 m/S 746 mmHg 92%
03:00 +10°C° 0 mm 4 m/S 746 mmHg 92%
04:00 +10°C° 0 mm 4 m/S 746 mmHg 92%
05:00 +10°C° 0 mm 4 m/S 746 mmHg 92%
06:00 +10°C° 0 mm 4 m/S 746 mmHg 92%
07:00 +10°C° 0 mm 4 m/S 747 mmHg 92%
08:00 +11°C° 0 mm 4 m/S 747 mmHg 86%
09:00 +13°C° 0 mm 5 m/S 747 mmHg 81%
10:00 +14°C° 0 mm 5 m/S 747 mmHg 76%
11:00 +15°C° 0 mm 5 m/S 747 mmHg 73%
12:00 +16°C° 0 mm 5 m/S 747 mmHg 71%
13:00 +16°C° 0 mm 5 m/S 747 mmHg 69%
14:00 +17°C° 0 mm 4 m/S 747 mmHg 72%
15:00 +16°C° 0 mm 3 m/S 747 mmHg 76%
16:00 +14°C° 0 mm 3 m/S 747 mmHg 79%
17:00 +14°C° 0 mm 3 m/S 748 mmHg 82%
18:00 +13°C° 0 mm 3 m/S 748 mmHg 84%
19:00 +12°C° 0 mm 3 m/S 748 mmHg 86%
20:00 +12°C° 0 mm 3 m/S 748 mmHg 87%
21:00 +12°C° 0 mm 3 m/S 748 mmHg 87%
22:00 +13°C° 0 mm 2 m/S 749 mmHg 88%
23:00 +12°C° 0 mm 2 m/S 749 mmHg 88%

28 Oktober, Mittwoch

Zeit Temperatur Niederschläge Wind Luftdruck Luftfeuchtigkeit
00:00 +12°C° 0 mm 2 m/S 749 mmHg 89%
01:00 +12°C° 0 mm 2 m/S 749 mmHg 89%
02:00 +12°C° 0 mm 2 m/S 749 mmHg 90%
03:00 +10°C° 0 mm 2 m/S 749 mmHg 90%
04:00 +10°C° 0 mm 2 m/S 749 mmHg 91%
05:00 +10°C° 0 mm 2 m/S 749 mmHg 92%
06:00 +10°C° 0 mm 2 m/S 749 mmHg 93%
07:00 +10°C° 0 mm 2 m/S 749 mmHg 93%
08:00 +12°C° 0 mm 2 m/S 749 mmHg 89%
09:00 +14°C° 0 mm 2 m/S 749 mmHg 85%
10:00 +15°C° 0 mm 2 m/S 749 mmHg 80%
11:00 +16°C° 0 mm 2 m/S 749 mmHg 78%
12:00 +16°C° 0 mm 1 m/S 749 mmHg 77%
13:00 +18°C° 0 mm 1 m/S 749 mmHg 75%
14:00 +16°C° 0 mm 1 m/S 749 mmHg 79%
15:00 +15°C° 0 mm 1 m/S 749 mmHg 84%
16:00 +15°C° 0 mm 1 m/S 749 mmHg 88%
17:00 +14°C° 0 mm 2 m/S 749 mmHg 90%
18:00 +14°C° 0 mm 2 m/S 749 mmHg 92%
19:00 +13°C° 0 mm 2 m/S 750 mmHg 93%
20:00 +13°C° 0 mm 2 m/S 750 mmHg 94%
21:00 +13°C° 0 mm 2 m/S 750 mmHg 94%
22:00 +13°C° 0 mm 2 m/S 750 mmHg 94%
23:00 +13°C° 0 mm 2 m/S 750 mmHg 94%
Mehr zeigen

Wir brauchen deine Erlaubnis

Meteoprog und unser Service Anbieter werden persönliche Daten aufbewahren, so wie Cookies, Geräte Bezeichnung oder ähnliche Technologien von deinem Gerät und Prozess, so wie Persönliche Daten Inhalte und Werbungen, genauso wie social Media und den Verkehr zu analysieren.

  • Aufbewahrung und/oder Zugang zu deiner Geräte Informationen.

    Cookies, Geräte Bezeichnung oder andere Informationen, können aufbewahrt oder Zugang zu deinem Gerät erhalten, für den Grund, der oben angegeben wird.

  • Personalisierte Werbung und Inhalte, Messungen, Einblick in das Publikum und Produkt Entwicklung.

    Werbungen und Inhalte können personalisiert werden, basierend auf ein Profil. Mehr Daten können besser personalisierte Werbungen und Inhalte hinzufügen. Werbung und Inhalte können gezeigt und gemessen werden. Einblicke über das Publikum, welche die Werbung gesehen haben und den Inhalt, können abgeleitet werden. So wie Daten können genutzt werden, um es zu verbessern oder die Benutzer Erfahrung zu verbessern das System und die Software.

Wenn du “Ich stimme zu” klickst, erlaubst du uns, die Cookies zu benutzen die Geräte Bezeichnung, den Web oder ähnliche Technologien zu benutzen. Deine Settings, können in deinem Gerät bei deinem Browser geändert werden.

Für den bestimmten Zweck, berechtigten Interessen beruhen darauf, mehr als auf den Inhalt. Du kannst mehr darüber in unseren Privaten und Cookie Politik lesen.